          31 18  05 13.34  +57 29.3   1.864  1.204    30.0 / 166  18.2  125  .91

     June  1 18  05 14.23  +57 00.2   1.877  1.203    29.5 / 166  18.2  136  .97

NAKANO

         **** Don't distribute anyone except personal use only ****

                (C) Copyright 2004 OAA/ComputingSection

write mail from CFAD0::NAKANO on 2004-04-24 05:24:28(JST).



◎C/2004 G1の軌道と予報位置です



 久万の中村彰正氏の4月11日の観測では,CCD全光度は17.1等でした.



    C/2004 G1 (LINEAR)                                                    

T 2004 June 4.84529 TT                                  Nakano

q   1.2019134            (2000.0)            P               Q

                   Peri.  110.56636     -0.05706062     +0.73057550

                   Node   228.39680     +0.13861360     +0.68075039

e   1.0            Incl.  114.49813     +0.98870135     -0.05327612

From 35 observations 2004 Apr. 9-14.

 

Date/        TT  R.A.(2000) Decl.     Delta   r     Daily motion  Mag.  Moon Age

              h    h  m       。  ,                      ,  / PA 。  m1      。

2004 Apr. 15 15  19 39.09  +80 45.8   1.208  1.430    85.0 /  34  18.0   96  .16

          16 15  20 01.87  +81 53.6   1.218  1.422    83.3 /  40  18.0   92  .09

          17 15  20 30.74  +82 54.3   1.228  1.414    81.6 /  47  18.0   87  .04

          18 15  21 07.30  +83 45.6   1.239  1.406    79.9 /  55  17.9   82  .01

          19 15  21 52.60  +84 24.4   1.250  1.399    78.1 /  66  17.9   77  .00

          20 15  22 45.64  +84 47.4   1.262  1.391    76.4 /  79  17.9   72  .01

          21 15  23 42.16  +84 52.2   1.274  1.384    74.6 /  93  17.9   67  .04

          22 15  00 35.98  +84 39.4   1.287  1.376    72.9 / 106  17.9   63  .09

          23 15  01 22.42  +84 11.9   1.300  1.369    71.1 / 118  17.9   61  .15

          24 15  02 00.09  +83 33.9   1.313  1.362    69.4 / 127  17.9   60  .22

          25 15  02 29.84  +82 48.9   1.327  1.354    67.7 / 134  17.9   60  .30

          26 15  02 53.28  +81 59.6   1.341  1.348    66.0 / 139  17.9   62  .39

          27 15  03 11.91  +81 07.8   1.355  1.341    64.4 / 144  17.9   65  .49

          28 15  03 26.94  +80 14.7   1.370  1.334    62.7 / 147  17.9   70  .59

          29 15  03 39.24  +79 21.2   1.385  1.327    61.2 / 150  17.9   77  .69

          30 15  03 49.48  +78 27.6   1.400  1.321    59.6 / 152  17.9   84  .78

     May   1 15  03 58.12  +77 34.4   1.415  1.315    58.1 / 154  17.9   92  .86

           2 15  04 05.50  +76 41.7   1.430  1.309    56.7 / 156  17.9  101  .93

           3 15  04 11.89  +75 49.8   1.446  1.303    55.2 / 157  17.9  110  .98

           4 15  04 17.48  +74 58.8   1.461  1.297    53.9 / 158  18.0  119 1.00

           5 15  04 22.41  +74 08.6   1.477  1.291    52.5 / 159  18.0  126  .99

           6 15  04 26.80  +73 19.4   1.493  1.285    51.2 / 160  18.0  131  .95

           7 15  04 30.73  +72 31.2   1.508  1.280    50.0 / 160  18.0  134  .89

           8 15  04 34.29  +71 44.0   1.524  1.275    48.8 / 161  18.0  132  .80

           9 15  04 37.52  +70 57.8   1.540  1.270    47.6 / 162  18.0  127  .70

          10 15  04 40.48  +70 12.5   1.556  1.265    46.4 / 162  18.0  120  .59

          11 15  04 43.19  +69 28.3   1.572  1.260    45.3 / 163  18.0  112  .48

          12 15  04 45.70  +68 44.9   1.588  1.256    44.3 / 163  18.0  103  .38

          13 15  04 48.02  +68 02.6   1.603  1.251    43.3 / 163  18.0   93  .28

          14 15  04 50.18  +67 21.1   1.619  1.247    42.3 / 164  18.0   84  .19

          15 15  04 52.20  +66 40.5   1.635  1.243    41.3 / 164  18.0   74  .12

NAKANO

         **** Don't distribute anyone except personal use only ****

                (C) Copyright 2004 OAA/ComputingSection

write mail from CFAD0::NAKANO on 2004-04-16 04:51:29(JST).

